Tracking 19636 objects as of 24-May-2019
HD Live streaming from Space Station
objects crossing your sky now

USA 11

Track USA 11 now!
USA 11 is classified as:


NORAD ID: 16116
Int'l Code: 1985-092B
Perigee: 36,044.2 km
Apogee: 36,078.4 km
Inclination: 15.3 °
Period: 1,449.8 minutes
Semi major axis: 42432 km
RCS: Unknown
Launch date: October 3, 1985
Source: United States (US)
Launch site: AIR FORCE EASTERN TEST RANGE (AFETR)
aabbcc
Your satellite tracking list
Your tracking list is empty




NASA's NSSDC Master Catalog

Two Line Element Set (TLE):
1 16116U 85092B   19143.54707978 -.00000194  00000-0  00000+0 0  9998
2 16116  15.2592   8.4052 0004030  15.5548 344.4248  0.99324810   268
Source of the keplerian elements: McCants